| time (UTC) | temp C | wind direction | speed KPH | gust KPH | rain 1hr cm | rain 24hr cm | rain mn cm | humidity % | barometer mb |
| 20260505223222 | 17 | 136 | 12.9 | 25.7 | 0.00 | 0.00 | 0.00 | 39 | 1017.0 |
| 20260505221601 | 17 | 135 | 11.3 | 25.7 | 0.00 | 0.00 | 0.00 | 38 | 1016.9 |
| 20260505220050 | 17 | 101 | 14.5 | 24.1 | 0.00 | 0.00 | 0.00 | 38 | 1016.7 |
| 20260505214657 | 17 | 138 | 11.3 | 27.4 | 0.00 | 0.00 | 0.00 | 38 | 1016.5 |
| 20260505213100 | 17 | 131 | 16.1 | 27.4 | 0.00 | 0.00 | 0.00 | 38 | 1016.6 |
| 20260505210248 | 17 | 138 | 17.7 | 33.8 | 0.00 | 0.00 | 0.00 | 37 | 1016.4 |
| 20260505204613 | 17 | 147 | 20.9 | 32.2 | 0.00 | 0.00 | 0.00 | 36 | 1016.4 |
| 20260505203102 | 17 | 121 | 19.3 | 29.0 | 0.00 | 0.00 | 0.00 | 36 | 1016.4 |
| 20260505201620 | 17 | 172 | 16.1 | 22.5 | 0.00 | 0.00 | 0.00 | 36 | 1016.4 |
| 20260505200050 | 17 | 114 | 16.1 | 24.1 | 0.00 | 0.00 | 0.00 | 36 | 1016.4 |
| 20260505194620 | 18 | 126 | 14.5 | 25.7 | 0.00 | 0.00 | 0.00 | 36 | 1016.4 |
| 20260505193106 | 18 | 141 | 16.1 | 29.0 | 0.00 | 0.00 | 0.00 | 35 | 1016.3 |
| 20260505191612 | 18 | 170 | 16.1 | 25.7 | 0.00 | 0.00 | 0.00 | 35 | 1016.3 |
| 20260505190054 | 18 | 131 | 17.7 | 32.2 | 0.00 | 0.00 | 0.00 | 35 | 1016.3 |
| 20260505184610 | 18 | 172 | 14.5 | 25.7 | 0.00 | 0.00 | 0.00 | 34 | 1016.3 |
| 20260505183055 | 18 | 159 | 12.9 | 25.7 | 0.00 | 0.00 | 0.00 | 34 | 1016.5 |
| 20260505181624 | 18 | 139 | 14.5 | 25.7 | 0.00 | 0.00 | 0.00 | 34 | 1016.6 |
| 20260505180109 | 18 | 128 | 17.7 | 30.6 | 0.00 | 0.00 | 0.00 | 33 | 1016.6 |
| 20260505174546 | 18 | 123 | 19.3 | 29.0 | 0.00 | 0.00 | 0.00 | 33 | 1016.7 |
| 20260505173142 | 19 | 139 | 17.7 | 27.4 | 0.00 | 0.00 | 0.00 | 32 | 1016.7 |
| 20260505171704 | 19 | 117 | 19.3 | 29.0 | 0.00 | 0.00 | 0.00 | 32 | 1016.8 |
| 20260505170103 | 19 | 116 | 14.5 | 27.4 | 0.00 | 0.00 | 0.00 | 32 | 1017.0 |
| 20260505164626 | 20 | 116 | 16.1 | 29.0 | 0.00 | 0.00 | 0.00 | 31 | 1016.9 |
| 20260505163051 | 20 | 150 | 19.3 | 29.0 | 0.00 | 0.00 | 0.00 | 31 | 1017.0 |
| 20260505161554 | 20 | 131 | 16.1 | 27.4 | 0.00 | 0.00 | 0.00 | 30 | 1017.1 |
| 20260505160116 | 20 | 135 | 19.3 | 27.4 | 0.00 | 0.00 | 0.00 | 30 | 1017.1 |
| 20260505153132 | 20 | 153 | 14.5 | 24.1 | 0.00 | 0.00 | 0.00 | 29 | 1017.2 |
| 20260505151551 | 20 | 155 | 11.3 | 24.1 | 0.00 | 0.00 | 0.00 | 29 | 1017.4 |
| 20260505150108 | 20 | 151 | 12.9 | 24.1 | 0.00 | 0.00 | 0.00 | 28 | 1017.6 |
| 20260505130106 | 21 | 151 | 11.3 | 24.1 | 0.00 | 0.00 | 0.00 | 25 | 1018.1 |
| 20260505124611 | 21 | 147 | 14.5 | 20.9 | 0.00 | 0.00 | 0.00 | 24 | 1018.1 |
| 20260505123102 | 21 | 147 | 11.3 | 20.9 | 0.00 | 0.00 | 0.00 | 24 | 1018.2 |
| 20260505121621 | 21 | 124 | 8.0 | 19.3 | 0.00 | 0.00 | 0.00 | 24 | 1018.3 |
| 20260505120051 | 22 | 159 | 9.7 | 16.1 | 0.00 | 0.00 | 0.00 | 24 | 1018.2 |
| 20260505114548 | 22 | 153 | 6.4 | 14.5 | 0.00 | 0.00 | 0.00 | 23 | 1017.9 |
| 20260505113048 | 22 | 162 | 9.7 | 16.1 | 0.00 | 0.00 | 0.00 | 23 | 1017.9 |
| 20260505111556 | 22 | 128 | 6.4 | 14.5 | 0.00 | 0.00 | 0.00 | 23 | 1017.8 |
| 20260505101557 | 23 | 133 | 8.0 | 16.1 | 0.00 | 0.00 | 0.00 | 21 | 1017.2 |
| 20260505100132 | 23 | 125 | 6.4 | 16.1 | 0.00 | 0.00 | 0.00 | 20 | 1017.0 |
| 20260505094553 | 24 | 151 | 8.0 | 16.1 | 0.00 | 0.00 | 0.00 | 20 | 1016.9 |
| 20260505093054 | 25 | 95 | 11.3 | 17.7 | 0.00 | 0.00 | 0.00 | 19 | 1016.8 |
| 20260505091611 | 25 | 117 | 8.0 | 17.7 | 0.00 | 0.00 | 0.00 | 19 | 1016.7 |
| 20260505090059 | 25 | 125 | 14.5 | 24.1 | 0.00 | 0.00 | 0.00 | 19 | 1016.5 |
| 20260505084547 | 26 | 117 | 11.3 | 19.3 | 0.00 | 0.00 | 0.00 | 18 | 1016.6 |
| 20260505083051 | 26 | 120 | 11.3 | 24.1 | 0.00 | 0.00 | 0.00 | 18 | 1016.5 |
| 20260505081551 | 26 | 151 | 14.5 | 25.7 | 0.00 | 0.00 | 0.00 | 18 | 1016.4 |
| 20260505080054 | 27 | 131 | 11.3 | 22.5 | 0.00 | 0.00 | 0.00 | 17 | 1016.3 |
| 20260505074547 | 27 | 114 | 11.3 | 20.9 | 0.00 | 0.00 | 0.00 | 18 | 1016.3 |
| 20260505073058 | 27 | 144 | 12.9 | 24.1 | 0.00 | 0.00 | 0.00 | 17 | 1016.1 |
| 20260505071550 | 27 | 137 | 16.1 | 27.4 | 0.00 | 0.00 | 0.00 | 17 | 1016.2 |
| 20260505070049 | 27 | 140 | 12.9 | 25.7 | 0.00 | 0.00 | 0.00 | 18 | 1016.2 |
| 20260505064548 | 27 | 87 | 6.4 | 22.5 | 0.00 | 0.00 | 0.00 | 18 | 1016.0 |
| 20260505063052 | 27 | 81 | 11.3 | 20.9 | 0.00 | 0.00 | 0.00 | 17 | 1016.0 |
| 20260505061548 | 27 | 162 | 12.9 | 22.5 | 0.00 | 0.00 | 0.00 | 17 | 1016.3 |
| 20260505060049 | 27 | 131 | 12.9 | 22.5 | 0.00 | 0.00 | 0.00 | 17 | 1016.4 |
| 20260505054615 | 27 | 226 | 12.9 | 22.5 | 0.00 | 0.00 | 0.00 | 18 | 1016.8 |
| 20260505053053 | 27 | 74 | 16.1 | 33.8 | 0.00 | 0.00 | 0.00 | 18 | 1016.8 |
| 20260505051549 | 26 | 147 | 9.7 | 24.1 | 0.00 | 0.00 | 0.00 | 20 | 1016.8 |
| 20260505041601 | 26 | 151 | 9.7 | 25.7 | 0.00 | 0.00 | 0.00 | 21 | 1018.0 |
| 20260505040052 | 26 | 110 | 12.9 | 24.1 | 0.00 | 0.00 | 0.00 | 21 | 1018.3 |
| 20260505034551 | 26 | 95 | 17.7 | 30.6 | 0.00 | 0.00 | 0.00 | 21 | 1018.4 |
| 20260505033045 | 25 | 104 | 12.9 | 24.1 | 0.00 | 0.00 | 0.00 | 22 | 1018.4 |
| 20260505031550 | 25 | 120 | 19.3 | 33.8 | 0.00 | 0.00 | 0.00 | 22 | 1018.7 |
| 20260505024547 | 25 | 83 | 14.5 | 29.0 | 0.00 | 0.00 | 0.00 | 22 | 1019.4 |
| 20260505023048 | 25 | 70 | 16.1 | 30.6 | 0.00 | 0.00 | 0.00 | 23 | 1019.5 |
| 20260505021553 | 24 | 97 | 16.1 | 30.6 | 0.00 | 0.00 | 0.00 | 23 | 1019.6 |
| 20260505020058 | 23 | 105 | 17.7 | 32.2 | 0.00 | 0.00 | 0.00 | 25 | 1019.8 |
| 20260505014556 | 23 | 105 | 19.3 | 33.8 | 0.00 | 0.00 | 0.00 | 27 | 1019.9 |
| 20260505013050 | 22 | 99 | 20.9 | 30.6 | 0.00 | 0.00 | 0.00 | 28 | 1020.0 |
| 20260505011549 | 22 | 89 | 14.5 | 29.0 | 0.00 | 0.00 | 0.00 | 30 | 1020.1 |
| 20260505010106 | 21 | 129 | 16.1 | 27.4 | 0.00 | 0.00 | 0.00 | 31 | 1020.2 |
| 20260505004549 | 20 | 114 | 17.7 | 30.6 | 0.00 | 0.00 | 0.00 | 32 | 1020.2 |
| 20260505003131 | 20 | 106 | 14.5 | 37.0 | 0.00 | 0.00 | 0.00 | 33 | 1020.1 |
| 20260505001547 | 20 | 116 | 14.5 | 25.7 | 0.00 | 0.00 | 0.00 | 34 | 1019.8 |
| 20260505000154 | 18 | 136 | 8.0 | 22.5 | 0.00 | 0.00 | 0.00 | 36 | 1019.9 |
| 20260505000100 | 18 | 136 | 8.0 | 22.5 | 0.00 | 0.00 | 0.00 | 36 | 1019.9 |
| 20260504234551 | 17 | 156 | 11.3 | 22.5 | 0.00 | 0.00 | 0.00 | 38 | 1020.1 |
| 20260504233111 | 16 | 85 | 8.0 | 19.3 | 0.00 | 0.00 | 0.00 | 39 | 1020.0 |